IOD-1 GEMS (44385 NORAD) Tracking and Keplerian Element Data

This shows tracking and keplerian element data for the satellite.

Feedback or suggestion? Click here.




ElementValue
Catalog44385
NameIOD-1 GEMS
Epoch Orbit272
Epoch Day201.85630346
Epoch Year2019
RAAN194.1327
Inclination51.6408
Eccentricity0.0003647
Argument of Perigee155.6518
Mean Anonmoly204.4645
Mean Motion15.51852978
Decay Rate5.869E-05
L11 44385U 98067QK 19201.85630346 .00005869 00000-0 10383-3 0 9998
L22 44385 51.6408 194.1327 0003647 155.6518 204.4645 15.51852978 2725

Live tracking and technical data element details for IOD-1 GEMS (NORAD 44385). IOD-1 GEMS can be tracked NOW for your location showing map with azimuth and elevation plus other details from your city location.

Track the satellite on the map from your city or location and see movement details for azimuth, elevation, latitude, longitude, range, height, and movement on the map or in text.







IsCatalogInMostPopularTable: catalog: 44385, numindb: 3
Update: records affected: 1



GetName: 44385 IOD-1 GEMS

Hit Count: updated at: Sun, 21 Jul 2019 21:18:35 GMT